Time,TemperatureF,DewpointF,PressureIn,WindDirection,WindDirectionDegrees,WindSpeedMPH,WindSpeedGustMPH,Humidity,HourlyPrecipIn,Conditions,Clouds,dailyrainin,SoftwareType,DateUTC
2013-05-23 00:02:00,63.0,57.0,29.75,NW,316,2.0,6.0,81,0.00,,,0.04,,2013-05-23 05:02:00,
2013-05-23 00:32:00,62.0,56.0,29.76,NNE,18,1.0,5.0,82,0.00,,,0.04,,2013-05-23 05:32:00,
2013-05-23 00:43:00,62.0,57.0,29.76,NW,324,0.0,5.0,83,0.00,,,0.04,,2013-05-23 05:43:00,
2013-05-23 00:52:00,62.0,57.0,29.76,NW,324,0.0,5.0,83,0.00,,,0.04,,2013-05-23 05:52:00,
2013-05-23 01:02:00,62.0,57.0,29.76,NNW,337,0.0,2.0,83,0.00,,,0.04,,2013-05-23 06:02:00,
2013-05-23 01:12:00,62.0,57.0,29.76,NNW,337,0.0,2.0,83,0.00,,,0.04,,2013-05-23 06:12:00,
2013-05-23 01:21:00,62.0,57.0,29.76,SW,234,0.0,3.0,84,0.00,,,0.04,,2013-05-23 06:21:00,
2013-05-23 01:32:00,61.0,56.0,29.75,WNW,299,1.0,5.0,84,0.00,,,0.04,,2013-05-23 06:32:00,
2013-05-23 01:42:00,61.0,56.0,29.75,WNW,299,1.0,5.0,84,0.00,,,0.04,,2013-05-23 06:42:00,
2013-05-23 01:52:00,61.0,56.0,29.76,NNW,341,1.0,4.0,84,0.00,,,0.04,,2013-05-23 06:52:00,
2013-05-23 02:02:00,61.0,56.0,29.76,NW,312,0.0,5.0,85,0.00,,,0.04,,2013-05-23 07:02:00,
2013-05-23 02:11:00,61.0,56.0,29.76,NW,312,0.0,5.0,85,0.00,,,0.04,,2013-05-23 07:11:00,
2013-05-23 02:21:00,61.0,56.0,29.75,WSW,249,1.0,4.0,84,0.00,,,0.04,,2013-05-23 07:21:00,
2013-05-23 02:32:00,61.0,56.0,29.75,NW,323,0.0,4.0,85,0.00,,,0.04,,2013-05-23 07:32:00,
2013-05-23 02:42:00,61.0,56.0,29.75,NW,323,0.0,4.0,85,0.00,,,0.04,,2013-05-23 07:42:00,
2013-05-23 02:59:00,61.0,57.0,29.75,NW,304,0.0,3.0,86,0.00,,,0.04,,2013-05-23 07:59:00,
2013-05-23 03:11:00,60.0,56.0,29.75,NW,306,1.0,8.0,87,0.00,,,0.04,,2013-05-23 08:11:00,
2013-05-23 03:22:00,60.0,56.0,29.76,NNW,341,0.0,4.0,87,0.00,,,0.04,,2013-05-23 08:22:00,
2013-05-23 03:31:00,60.0,56.0,29.76,NE,51,1.0,7.0,87,0.00,,,0.04,,2013-05-23 08:31:00,
2013-05-23 03:42:00,60.0,56.0,29.76,NE,51,1.0,7.0,87,0.00,,,0.04,,2013-05-23 08:42:00,
2013-05-23 03:51:00,60.0,56.0,29.76,NW,315,1.0,5.0,87,0.00,,,0.04,,2013-05-23 08:51:00,
2013-05-23 04:01:00,60.0,56.0,29.76,SSW,200,1.0,3.0,88,0.00,,,0.04,,2013-05-23 09:01:00,
2013-05-23 04:11:00,60.0,56.0,29.76,SSW,200,1.0,3.0,88,0.00,,,0.04,,2013-05-23 09:11:00,
2013-05-23 04:21:00,60.0,56.0,29.77,NE,38,2.0,8.0,88,0.00,,,0.04,,2013-05-23 09:21:00,
2013-05-23 04:33:00,60.0,56.0,29.77,WSW,258,1.0,8.0,88,0.00,,,0.04,,2013-05-23 09:33:00,
2013-05-23 04:42:00,60.0,56.0,29.77,WSW,258,1.0,8.0,88,0.00,,,0.04,,2013-05-23 09:42:00,
2013-05-23 04:53:00,60.0,56.0,29.78,NW,320,1.0,6.0,88,0.00,,,0.04,,2013-05-23 09:53:00,
2013-05-23 05:02:00,60.0,57.0,29.78,WSW,246,2.0,6.0,89,0.00,,,0.04,,2013-05-23 10:02:00,
2013-05-23 05:12:00,60.0,57.0,29.78,WSW,246,2.0,6.0,89,0.00,,,0.04,,2013-05-23 10:12:00,
2013-05-23 05:22:00,59.0,56.0,29.78,NW,304,0.0,7.0,89,0.00,,,0.04,,2013-05-23 10:22:00,
2013-05-23 05:32:00,59.0,56.0,29.78,NW,313,0.0,5.0,89,0.00,,,0.04,,2013-05-23 10:32:00,
2013-05-23 05:42:00,59.0,56.0,29.78,NW,313,0.0,5.0,89,0.00,,,0.04,,2013-05-23 10:42:00,
2013-05-23 05:52:00,59.0,56.0,29.79,NNW,335,1.0,6.0,89,0.00,,,0.04,,2013-05-23 10:52:00,
2013-05-23 06:02:00,59.0,56.0,29.80,WNW,288,1.0,8.0,89,0.00,,,0.04,,2013-05-23 11:02:00,
2013-05-23 06:11:00,59.0,56.0,29.80,WNW,288,1.0,8.0,89,0.00,,,0.04,,2013-05-23 11:11:00,
2013-05-23 06:22:00,59.0,56.0,29.80,NW,325,1.0,5.0,90,0.00,,,0.04,,2013-05-23 11:22:00,
2013-05-23 06:32:00,59.0,56.0,29.80,NW,323,2.0,7.0,90,0.00,,,0.04,,2013-05-23 11:32:00,
2013-05-23 06:42:00,59.0,56.0,29.80,NW,323,2.0,7.0,90,0.00,,,0.04,,2013-05-23 11:42:00,
2013-05-23 06:52:00,59.0,56.0,29.81,NNW,345,1.0,5.0,90,0.00,,,0.04,,2013-05-23 11:52:00,
2013-05-23 07:01:00,59.0,56.0,29.82,WNW,285,1.0,8.0,90,0.00,,,0.04,,2013-05-23 12:01:00,
2013-05-23 07:12:00,59.0,56.0,29.82,WNW,285,1.0,8.0,90,0.00,,,0.04,,2013-05-23 12:12:00,
2013-05-23 07:21:00,59.0,56.0,29.83,WSW,246,2.0,8.0,89,0.00,,,0.04,,2013-05-23 12:21:00,
2013-05-23 07:32:00,59.0,56.0,29.83,NNE,32,3.0,6.0,91,0.00,,,0.03,,2013-05-23 12:32:00,
2013-05-23 07:42:00,59.0,56.0,29.83,NNE,32,3.0,6.0,91,0.00,,,0.03,,2013-05-23 12:42:00,
2013-05-23 07:52:00,59.0,57.0,29.83,NW,311,1.0,8.0,92,0.00,,,0.03,,2013-05-23 12:52:00,
2013-05-23 08:01:00,59.0,57.0,29.84,NW,322,1.0,5.0,92,0.00,,,0.03,,2013-05-23 13:01:00,
2013-05-23 08:11:00,59.0,57.0,29.84,NW,322,1.0,5.0,92,0.00,,,0.03,,2013-05-23 13:11:00,
2013-05-23 08:22:00,59.0,56.0,29.85,West,277,1.0,8.0,91,0.00,,,0.03,,2013-05-23 13:22:00,
2013-05-23 08:32:00,59.0,56.0,29.85,NW,311,0.0,7.0,90,0.00,,,0.03,,2013-05-23 13:32:00,
2013-05-23 08:42:00,59.0,56.0,29.85,NW,311,0.0,7.0,90,0.00,,,0.03,,2013-05-23 13:42:00,
2013-05-23 08:52:00,59.0,55.0,29.86,NNE,16,4.0,8.0,88,0.00,,,0.03,,2013-05-23 13:52:00,
2013-05-23 09:02:00,56.0,53.0,29.87,North,5,4.0,6.0,90,0.00,,,0.03,,2013-05-23 14:02:00,
2013-05-23 09:11:00,56.0,53.0,29.87,North,5,4.0,6.0,90,0.00,,,0.03,,2013-05-23 14:11:00,
2013-05-23 09:21:00,55.0,53.0,29.88,NNE,15,3.0,7.0,93,0.01,,,0.04,,2013-05-23 14:21:00,
2013-05-23 09:32:00,55.0,53.0,29.88,North,11,4.0,7.0,93,0.01,,,0.04,,2013-05-23 14:32:00,
2013-05-23 09:42:00,55.0,53.0,29.88,North,11,4.0,7.0,93,0.01,,,0.04,,2013-05-23 14:42:00,
2013-05-23 09:52:00,55.0,53.0,29.89,North,5,4.0,9.0,93,0.01,,,0.04,,2013-05-23 14:52:00,
2013-05-23 10:01:00,55.0,53.0,29.90,NNE,14,6.0,10.0,94,0.01,,,0.04,,2013-05-23 15:01:00,
2013-05-23 10:11:00,55.0,53.0,29.90,NNE,14,6.0,10.0,94,0.01,,,0.04,,2013-05-23 15:11:00,
2013-05-23 10:21:00,54.0,52.0,29.91,North,9,5.0,14.0,93,0.00,,,0.04,,2013-05-23 15:21:00,
2013-05-23 10:32:00,53.0,51.0,29.92,North,355,6.0,10.0,93,0.00,,,0.04,,2013-05-23 15:32:00,
2013-05-23 10:42:00,53.0,51.0,29.92,North,355,6.0,10.0,93,0.00,,,0.04,,2013-05-23 15:42:00,
2013-05-23 10:53:00,52.0,50.0,29.93,NNE,13,7.0,11.0,92,0.00,,,0.04,,2013-05-23 15:53:00,
2013-05-23 11:03:00,52.0,49.0,29.94,ENE,66,8.0,14.0,91,0.00,,,0.04,,2013-05-23 16:03:00,
2013-05-23 11:12:00,52.0,49.0,29.94,ENE,66,8.0,14.0,91,0.00,,,0.04,,2013-05-23 16:12:00,
2013-05-23 11:23:00,51.0,48.0,29.95,North,360,6.0,13.0,90,0.00,,,0.04,,2013-05-23 16:23:00,
2013-05-23 11:33:00,51.0,48.0,29.96,NNE,21,7.0,11.0,91,0.00,,,0.04,,2013-05-23 16:33:00,
2013-05-23 11:42:00,51.0,48.0,29.96,NNE,21,7.0,11.0,91,0.00,,,0.04,,2013-05-23 16:42:00,
2013-05-23 11:52:00,50.0,47.0,29.96,NNE,25,7.0,14.0,90,0.00,,,0.04,,2013-05-23 16:52:00,
2013-05-23 12:03:00,50.0,47.0,29.98,NNE,19,7.0,13.0,90,0.00,,,0.04,,2013-05-23 17:03:00,
2013-05-23 12:11:00,50.0,47.0,29.98,NNE,19,7.0,13.0,90,0.00,,,0.04,,2013-05-23 17:11:00,
2013-05-23 12:23:00,50.0,47.0,29.98,NNE,22,8.0,15.0,89,0.00,,,0.04,,2013-05-23 17:23:00,
2013-05-23 12:33:00,50.0,46.0,29.98,NNE,16,9.0,14.0,87,0.00,,,0.04,,2013-05-23 17:33:00,
2013-05-23 12:43:00,50.0,46.0,29.98,NNE,16,9.0,14.0,87,0.00,,,0.04,,2013-05-23 17:43:00,
2013-05-23 12:52:00,50.0,47.0,29.99,NNE,15,8.0,13.0,88,0.00,,,0.04,,2013-05-23 17:52:00,
2013-05-23 13:01:00,50.0,47.0,30.00,NNW,345,9.0,14.0,88,0.00,,,0.04,,2013-05-23 18:01:00,
2013-05-23 13:11:00,50.0,47.0,30.00,NNW,345,9.0,14.0,88,0.00,,,0.04,,2013-05-23 18:11:00,
2013-05-23 13:22:00,49.0,45.0,30.01,North,5,8.0,16.0,87,0.00,,,0.04,,2013-05-23 18:22:00,
2013-05-23 13:32:00,50.0,46.0,30.02,NNE,19,7.0,17.0,86,0.00,,,0.01,,2013-05-23 18:32:00,
2013-05-23 13:42:00,50.0,46.0,30.02,NNE,19,7.0,17.0,86,0.00,,,0.01,,2013-05-23 18:42:00,
2013-05-23 13:52:00,50.0,46.0,30.01,North,9,9.0,14.0,87,0.00,,,0.01,,2013-05-23 18:52:00,
2013-05-23 14:01:00,50.0,46.0,30.02,NNE,13,7.0,13.0,86,0.00,,,0.01,,2013-05-23 19:01:00,
2013-05-23 14:11:00,50.0,46.0,30.02,NNE,13,7.0,13.0,86,0.00,,,0.01,,2013-05-23 19:11:00,
2013-05-23 14:21:00,50.0,45.0,30.02,North,9,9.0,17.0,84,0.00,,,0.01,,2013-05-23 19:21:00,
2013-05-23 14:32:00,50.0,45.0,30.04,North,5,8.0,16.0,84,0.00,,,0.01,,2013-05-23 19:32:00,
2013-05-23 14:42:00,50.0,45.0,30.04,North,5,8.0,16.0,84,0.00,,,0.01,,2013-05-23 19:42:00,
2013-05-23 14:52:00,50.0,45.0,30.05,NNE,31,6.0,13.0,84,0.00,,,0.01,,2013-05-23 19:52:00,
2013-05-23 15:02:00,50.0,45.0,30.06,NE,48,6.0,12.0,84,0.00,,,0.01,,2013-05-23 20:02:00,
2013-05-23 15:11:00,50.0,45.0,30.06,NE,48,6.0,12.0,84,0.00,,,0.01,,2013-05-23 20:11:00,
2013-05-23 15:21:00,49.0,45.0,30.07,NNE,17,7.0,15.0,85,0.00,,,0.01,,2013-05-23 20:21:00,
2013-05-23 15:32:00,49.0,44.0,30.07,North,5,9.0,15.0,83,0.00,,,0.01,,2013-05-23 20:32:00,
2013-05-23 15:42:00,49.0,44.0,30.07,North,5,9.0,15.0,83,0.00,,,0.01,,2013-05-23 20:42:00,
2013-05-23 15:51:00,51.0,46.0,30.07,North,355,8.0,13.0,82,0.00,,,0.01,,2013-05-23 20:51:00,
2013-05-23 16:01:00,51.0,45.0,30.07,NE,44,7.0,14.0,81,0.00,,,0.01,,2013-05-23 21:01:00,
2013-05-23 16:11:00,51.0,45.0,30.07,NE,44,7.0,14.0,81,0.00,,,0.01,,2013-05-23 21:11:00,
2013-05-23 16:21:00,51.0,45.0,30.08,NE,36,5.0,14.0,80,0.00,,,0.01,,2013-05-23 21:21:00,
2013-05-23 16:32:00,51.0,45.0,30.09,NNE,25,7.0,14.0,79,0.00,,,0.01,,2013-05-23 21:32:00,
2013-05-23 16:43:00,51.0,45.0,30.09,NNE,25,7.0,14.0,79,0.00,,,0.01,,2013-05-23 21:43:00,
2013-05-23 16:53:00,51.0,44.0,30.09,North,355,10.0,16.0,78,0.00,,,0.01,,2013-05-23 21:53:00,
2013-05-23 17:03:00,51.0,44.0,30.09,NNE,16,9.0,18.0,76,0.00,,,0.01,,2013-05-23 22:03:00,
2013-05-23 17:12:00,51.0,44.0,30.09,NNE,16,9.0,18.0,76,0.00,,,0.01,,2013-05-23 22:12:00,
2013-05-23 17:22:00,51.0,44.0,30.11,NNE,13,11.0,17.0,76,0.00,,,0.01,,2013-05-23 22:22:00,
2013-05-23 17:33:00,51.0,44.0,30.11,North,5,9.0,17.0,76,0.00,,,0.01,,2013-05-23 22:33:00,
2013-05-23 17:42:00,51.0,44.0,30.11,North,5,9.0,17.0,76,0.00,,,0.01,,2013-05-23 22:42:00,
2013-05-23 17:52:00,51.0,44.0,30.12,NNE,25,9.0,17.0,76,0.00,,,0.01,,2013-05-23 22:52:00,
2013-05-23 18:01:00,52.0,43.0,30.12,North,5,9.0,16.0,72,0.00,,,0.01,,2013-05-23 23:01:00,
2013-05-23 18:11:00,52.0,43.0,30.12,North,5,9.0,16.0,72,0.00,,,0.01,,2013-05-23 23:11:00,
2013-05-23 18:21:00,52.0,44.0,30.13,NNE,15,9.0,16.0,73,0.00,,,0.01,,2013-05-23 23:21:00,
2013-05-23 18:32:00,52.0,43.0,30.14,NNE,17,9.0,15.0,72,0.00,,,0.01,,2013-05-23 23:32:00,
2013-05-23 18:42:00,52.0,43.0,30.14,NNE,17,9.0,15.0,72,0.00,,,0.01,,2013-05-23 23:42:00,
2013-05-23 18:52:00,51.0,42.0,30.15,NNE,28,10.0,16.0,72,0.00,,,0.01,,2013-05-23 23:52:00,
2013-05-23 19:01:00,51.0,42.0,30.15,NNE,24,9.0,14.0,71,0.00,,,0.01,,2013-05-24 00:01:00,
2013-05-23 19:12:00,51.0,42.0,30.15,NNE,24,9.0,14.0,71,0.00,,,0.01,,2013-05-24 00:12:00,
2013-05-23 19:21:00,50.0,41.0,30.16,NNE,14,7.0,12.0,72,0.00,,,0.01,,2013-05-24 00:21:00,
2013-05-23 19:32:00,49.0,40.0,30.17,North,360,8.0,14.0,72,0.00,,,0.01,,2013-05-24 00:32:00,
2013-05-23 19:42:00,49.0,40.0,30.17,North,360,8.0,14.0,72,0.00,,,0.01,,2013-05-24 00:42:00,
2013-05-23 19:52:00,49.0,41.0,30.17,North,5,7.0,12.0,74,0.00,,,0.01,,2013-05-24 00:52:00,
2013-05-23 20:01:00,48.0,40.0,30.18,NNE,28,6.0,14.0,75,0.00,,,0.01,,2013-05-24 01:01:00,
2013-05-23 20:12:00,48.0,40.0,30.18,NNE,28,6.0,14.0,75,0.00,,,0.01,,2013-05-24 01:12:00,
2013-05-23 20:22:00,47.0,40.0,30.19,NE,40,5.0,11.0,77,0.00,,,0.01,,2013-05-24 01:22:00,
2013-05-23 20:32:00,47.0,40.0,30.19,NNE,19,6.0,9.0,77,0.00,,,0.01,,2013-05-24 01:32:00,
2013-05-23 20:42:00,47.0,40.0,30.19,NNE,19,6.0,9.0,77,0.00,,,0.01,,2013-05-24 01:42:00,
2013-05-23 20:52:00,46.0,40.0,30.19,North,9,6.0,13.0,78,0.00,,,0.01,,2013-05-24 01:52:00,
2013-05-23 21:01:00,46.0,40.0,30.20,NNE,17,5.0,9.0,79,0.00,,,0.01,,2013-05-24 02:01:00,
2013-05-23 21:11:00,46.0,40.0,30.20,NNE,17,5.0,9.0,79,0.00,,,0.01,,2013-05-24 02:11:00,
2013-05-23 21:21:00,45.0,39.0,30.21,NNE,22,6.0,9.0,79,0.00,,,0.01,,2013-05-24 02:21:00,
2013-05-23 21:32:00,45.0,39.0,30.21,North,11,5.0,12.0,78,0.00,,,0.01,,2013-05-24 02:32:00,
2013-05-23 21:42:00,45.0,39.0,30.21,North,11,5.0,12.0,78,0.00,,,0.01,,2013-05-24 02:42:00,
2013-05-23 21:52:00,45.0,39.0,30.21,North,11,5.0,12.0,78,0.00,,,0.01,,2013-05-24 02:52:00,
2013-05-23 22:02:00,44.0,37.0,30.22,NNE,17,5.0,9.0,76,0.00,,,0.01,,2013-05-24 03:02:00,
2013-05-23 22:11:00,44.0,37.0,30.22,NNE,17,5.0,9.0,76,0.00,,,0.01,,2013-05-24 03:11:00,
2013-05-23 22:21:00,44.0,37.0,30.23,NNE,20,5.0,8.0,76,0.00,,,0.01,,2013-05-24 03:21:00,
2013-05-23 22:33:00,43.0,36.0,30.23,NNE,15,4.0,8.0,76,0.00,,,0.01,,2013-05-24 03:33:00,
2013-05-23 22:42:00,43.0,36.0,30.23,NNE,15,4.0,8.0,76,0.00,,,0.01,,2013-05-24 03:42:00,
2013-05-23 22:53:00,43.0,36.0,30.23,NNE,15,4.0,8.0,77,0.00,,,0.01,,2013-05-24 03:53:00,
2013-05-23 23:03:00,43.0,37.0,30.24,NNE,15,4.0,9.0,78,0.00,,,0.01,,2013-05-24 04:03:00,
2013-05-23 23:12:00,43.0,37.0,30.24,NNE,15,4.0,9.0,78,0.00,,,0.01,,2013-05-24 04:12:00,
2013-05-23 23:22:00,42.0,36.0,30.24,NNE,18,4.0,7.0,79,0.00,,,0.01,,2013-05-24 04:22:00,
2013-05-23 23:33:00,42.0,36.0,30.24,NNE,19,3.0,7.0,80,0.00,,,0.01,,2013-05-24 04:33:00,
2013-05-23 23:42:00,42.0,36.0,30.24,NNE,19,3.0,7.0,80,0.00,,,0.01,,2013-05-24 04:42:00,
2013-05-23 23:52:00,41.0,36.0,30.25,North,355,3.0,6.0,81,0.00,,,0.01,,2013-05-24 04:52:00,